Voltar ao catálogo

METEOR 2-11 DEB

AtivoPO
NORAD 60003·DEBRIS·🇷🇺 Russia

Lançado Jul 5, 1984 de Plesetsk Cosmodrome

Loading…

Próximas Passagens (próximas 24 horas)

TLE

ObsoletoSource: Space-Track

Época: Aug 20, 2026, 12:47 UTC

1 60003U 84072Y   26232.53323686  .00000596  00000-0  41193-3 0  9992
2 60003  82.5283 322.5907 0024379 153.9131 206.3271 13.97551156475319

Acompanhe METEOR 2-11 DEB em tempo real com AllMySat

Download on the App Store